SCP
0 0 0 0 0 0 0 0 0 0 0 0 0 0 0 0 0 0 0 0 0 0 0 0 0 0 0 0 0 0 0 0 0 0 0 0 0 0 0 0 0 0 0
0 0 0 0 0 0 0 0 0 0 0 0 0 0 0 0 0 0 0 0 0 0 -0 0 0 0 0 0 0 0 0 0 0 0 0 0 0 0 0 0 0 0 0
0 0 0 0 0 0 0 0 0 0 0 0 0 0 0 0 0 0 0 0 0 0 -0 -0 0 0 0 0 0 0 0 0 0 0 0 0 0 0 0 0 0 0 0
0 0 0 0 0 0 0 0 0 0 0 0 0 0 0 0 0 0 0 0 0 0 0 -0 -0 0 0 0 0 0 0 0 0 0 0 0 0 0 0 0 0 0 0
0 0 0 0 0 0 0 0 0 0 0 0 0 0 0 0 0 0 0 0 0 0 0 0 0 0 0 0 0 0 0 0 0 0 0 0 0 0 0 0 0 0 0
0 0 0 0 0 0 0 0 0 0 0 0 0 0 0 0 0 0 0 0 0 0 0 0 0 0 0 0 0 0 0 0 0 0 0 0 0 0 0 0 0 0 0
0 0 0 0 0 0 0 0 0 0 0 0 0 0 0 0 0 0 0 0 0 0 0 0 0 0 0 0 0 0 0 0 0 0 0 0 0 0 0 0 0 0 0
0 0 0 0 0 0 0 0 0 0 0 0 0 0 0 0 0 0 0 0 0 0 0 0 0 0 0 0 0 0 0 0 0 0 0 0 0 0 0 0 0 0 0
0 0 0 0 0 0 0 0 0 0 0 0 0 0 0 0 0 0 0 0 0 0 0 0 0 0 0 0 0 0 0 0 0 0 0 0 0 0 0 0 0 0 0
0 0 0 0 0 0 0 0 0 0 0 0 0 0 0 0 0 0 0 0 0 0 0 0 0 0 0 0 0 0 0 0 0 0 0 0 0 0 0 0 0 0 0
0 0 0 0 0 0 0 0 0 0 0 0 0 0 0 0 -0 -0 0 0 0 0 0 0 0 0 0 0 0 0 0 0 0 0 0 0 0 0 0 0 0 0 0
0 0 0 0 0 0 0 0 0 0 0 0 0 0 0 0 0 0 0 0 0 0 0 0 0 0 0 0 0 0 0 0 0 0 0 0 0 0 0 0 0 0 0
0 0 0 0 0 0 0 0 0 0 0 0 0 0 0 0 0 0 0 0 0 0 0 0 0 0 0 0 0 0 0 0 0 0 0 0 0 0 0 0 0 0 0
0 0 0 0 0 0 0 0 0 0 0 0 0 0 0 0 0 0 0 0 0 0 0 0 0 0 0 0 0 0 0 0 0 0 0 0 0 0 0 0 0 0 0
0 0 0 0 0 0 0 0 0 0 0 0 0 0 0 0 0 0 0 0 0 0 0 0 0 0 0 0 0 0 0 0 0 0 0 0 0 0 0 0 0 0 0
0 0 0 0 0 0 0 0 0 0 0 0 0 0 0 0 0 0 0 0 0 0 0 0 0 0 0 0 0 0 0 0 0 0 0 0 0 0 0 0 0 0 0
0 0 0 0 0 0 0 0 0 0 0 0 0 0 0 0 0 0 0 0 0 0 -0 -0 -0 -0 -0 0 0 0 0 0 0 0 0 0 0 0 0 0 0 0 0
0 0 0 0 0 0 0 0 0 0 0 0 0 0 0 0 0 0 0 0 0 0 -0 -0 -0 -0 -0 -0 -0 0 0 0 0 0 0 0 0 0 0 0 0 0 0
0 0 0 0 0 0 0 0 0 0 0 0 0 0 0 0 0 0 0 0 0 0 -0 -0 -0 -0 -0 -0 -0 0 0 0 0 0 0 0 0 0 0 0 0 0 0
0 0 0 0 0 0 0 0 0 0 0 0 0 0 0 0 0 0 0 0 0 0 0 -0 -0 -0 -0 -0 0 0 0 0 0 0 0 0 0 0 0 0 0 0 0
0 0 0 0 0 0 0 0 0 0 0 0 0 0 0 0 0 0 0 0 0 0 0 0 0 -0 -0 0 0 0 0 0 0 0 0 0 0 0 0 0 0 0 0
0 0 0 0 0 0 0 0 0 0 0 0 0 0 0 0 0 0 0 0 0 0 0 0 0 0 0 0 0 0 0 0 0 0 0 0 0 0 0 0 0 0 0
0 0 0 0 0 0 0 0 0 0 0 0 0 0 0 0 0 0 0 0 0 0 0 0 0 0 0 0 0 0 0 0 0 0 0 0 0 0 0 0 0 0 0
0 0 0 0 0 0 0 0 0 0 0 0 0 0 0 0 0 0 0 0 0 0 0 0 0 0 0 0 0 0 0 0 0 0 0 0 0 0 0 0 0 0 0
0 0 0 0 0 0 0 0 0 0 0 0 0 0 0 0 0 0 0 0 0 0 0 0 0 0 0 0 0 0 0 0 0 0 0 0 0 0 0 0 0 0 0
0 0 0 0 0 0 0 0 0 0 0 0 0 0 0 0 0 0 0 0 0 0 0 0 0 0 0 0 0 0 0 0 0 0 0 0 0 0 0 0 0 0 0
Wind_Speed
6 6 8 8 8 7 7 6 5 3 3 2 1 1 1 1 1 1 1 1 1 1 1 1 1 1 0 1 1 0 1 1 1 2 2 3 2 1 0 0 0 0 1
6 7 7 7 8 7 7 6 6 4 3 2 2 1 1 1 1 1 1 1 1 1 1 1 1 1 0 1 1 1 1 1 1 2 1 2 3 3 2 1 0 0 0
12 10 9 8 7 8 8 7 6 5 4 3 2 2 2 2 2 2 2 2 2 2 1 1 1 1 0 1 1 1 1 0 1 1 2 2 1 2 2 2 1 1 1
11 10 10 9 8 8 7 8 6 5 4 3 3 3 2 1 2 2 2 3 3 3 2 2 1 1 1 1 1 1 1 2 0 1 0 1 2 1 1 2 2 1 1
12 12 11 10 9 8 7 7 6 5 4 4 4 3 2 1 1 1 2 2 3 3 3 2 1 1 1 1 1 1 1 1 2 1 0 1 1 1 1 0 2 2 1
9 9 8 8 6 6 6 7 7 5 4 4 4 4 3 2 0 1 1 2 2 3 3 2 2 1 1 1 1 1 1 1 2 1 1 1 1 1 1 1 0 0 1
9 9 9 8 8 8 7 7 7 5 4 4 4 4 4 3 2 2 2 2 2 2 3 2 1 1 1 1 1 1 1 2 2 2 1 1 2 2 2 2 1 0 1
9 10 11 10 10 9 8 8 7 6 5 4 4 3 3 2 2 2 2 2 2 3 3 2 1 1 1 0 1 1 1 1 2 2 1 1 1 2 2 3 2 1 1
10 10 10 9 9 9 9 9 9 6 5 5 4 4 3 2 2 2 1 2 2 2 1 1 1 1 1 1 1 1 0 1 1 1 1 1 1 1 1 2 3 3 2
8 9 9 9 9 9 8 8 8 7 6 5 5 4 3 3 3 1 1 2 2 1 1 1 1 1 1 1 1 1 0 1 0 0 0 1 1 0 1 1 2 2 3
10 10 9 9 8 8 8 8 7 6 6 5 4 4 3 2 2 1 2 2 1 1 0 1 1 1 1 1 1 0 1 1 1 1 1 0 1 1 1 1 1 1 2
9 9 9 8 7 8 8 8 7 7 7 6 5 4 3 3 2 2 2 1 1 1 1 0 1 1 1 1 1 0 0 1 0 0 1 0 1 1 1 1 1 1 2
7 7 7 8 9 9 8 8 8 8 7 6 5 4 4 3 3 2 2 1 1 1 0 1 1 1 0 1 0 0 0 1 0 1 1 1 2 1 1 1 1 1 1
7 8 8 8 9 9 9 8 8 8 7 6 6 5 5 5 4 3 2 1 1 1 1 1 0 0 0 0 0 1 1 1 0 0 1 1 2 2 2 2 1 1 1
6 8 9 9 8 8 8 8 8 7 7 7 7 7 6 5 4 3 2 2 1 1 2 1 0 1 0 0 1 1 1 1 1 1 1 0 1 2 2 2 2 2 2
7 8 8 8 9 10 9 8 8 8 8 8 8 6 5 5 4 4 3 2 1 1 1 1 1 1 1 0 2 3 2 1 1 1 1 1 1 0 2 3 4 5 4
6 7 8 9 10 10 10 10 10 8 8 8 7 7 6 6 5 4 3 3 2 2 2 2 1 1 2 0 2 3 3 2 1 1 1 1 1 1 0 1 1 2 3
4 5 6 7 8 8 8 8 7 8 8 8 8 7 7 7 5 4 4 4 3 2 2 2 2 1 2 1 1 3 3 2 1 0 1 0 1 1 1 1 1 0 1
4 5 6 6 6 7 7 7 8 8 8 8 8 9 8 7 6 6 5 4 3 2 2 2 2 2 2 1 1 3 2 2 1 1 0 0 0 1 2 2 2 0 2
2 2 3 3 5 6 6 8 8 8 10 10 10 9 9 8 8 7 6 4 3 3 3 2 2 2 2 1 1 4 2 2 0 1 2 1 1 1 2 2 2 1 1
2 1 2 3 5 5 6 8 8 10 11 9 8 8 8 9 8 6 4 4 4 3 2 2 1 1 2 2 2 4 3 2 1 0 1 1 2 2 2 3 2 2 1
3 1 1 3 3 4 6 7 9 9 7 7 7 8 8 8 7 6 5 4 4 4 3 2 1 1 1 1 2 4 4 4 3 1 1 1 2 3 4 3 3 3 3
4 3 2 3 3 4 6 8 8 6 6 7 7 7 7 6 6 7 6 4 4 4 3 3 3 2 1 1 2 3 4 4 3 2 2 3 3 4 3 5 5 4 3
4 3 2 3 4 4 5 6 5 5 7 8 7 6 6 5 5 5 6 5 5 5 4 4 4 3 2 1 1 1 2 3 2 1 2 4 5 4 4 4 4 3 2
4 3 3 4 5 4 5 4 4 6 6 7 6 6 6 6 5 4 4 6 6 7 7 6 5 5 4 5 6 4 3 3 3 3 2 2 2 2 2 2 2 2 2
5 5 5 5 5 4 5 4 5 6 6 5 5 5 5 4 5 4 2 2 4 6 9 9 8 5 6 6 6 7 6 6 8 5 3 2 2 2 1 1 1 2 2
Wind_Direction
181 161 151 145 138 137 137 139 137 143 123 99 92 78 24 332 336 318 327 341 346 2 19 350 341 349 355 285 299 345 349 326 347 38 5 351 357 3 342 155 179 193 231
166 162 155 151 150 151 150 146 148 155 149 145 163 176 183 249 268 304 326 313 323 333 337 352 322 328 343 343 359 63 60 345 45 98 73 7 353 350 360 26 81 36 35
175 170 163 162 156 156 159 156 160 159 154 141 107 64 45 20 359 333 319 302 297 304 308 303 293 301 184 236 251 172 134 87 346 96 128 128 242 317 339 3 26 39 53
174 169 166 166 167 167 159 154 160 158 155 141 124 124 132 197 249 257 278 297 302 302 292 287 278 268 232 233 246 182 161 134 74 345 73 145 159 153 346 345 0 25 51
173 172 174 174 171 166 158 155 154 157 158 148 145 141 153 217 260 286 309 312 307 304 302 291 288 273 247 238 239 189 164 156 161 161 138 79 74 114 146 321 342 356 346
171 171 171 163 163 160 154 153 152 161 164 154 153 156 170 194 236 300 309 309 305 308 314 310 304 279 249 235 216 198 175 173 164 161 153 152 145 175 157 166 248 329 318
166 165 164 167 168 166 163 160 157 167 175 166 170 176 186 186 201 231 245 271 289 293 300 309 297 284 252 231 187 164 176 170 164 178 191 186 187 176 160 148 165 110 330
174 175 176 175 176 174 169 165 167 173 179 176 184 189 192 188 212 225 227 243 250 262 285 298 292 293 285 283 147 156 200 183 179 190 182 190 213 181 171 163 148 110 21
183 181 180 180 179 177 178 176 174 177 183 182 179 187 194 193 214 235 239 253 262 277 308 325 322 335 352 19 89 85 163 141 175 193 186 190 233 193 174 155 150 147 143
187 184 183 184 183 183 182 178 177 181 185 182 183 185 195 202 211 213 254 272 284 307 348 352 358 357 5 38 63 40 49 97 76 163 159 207 211 134 126 140 140 143 149
192 189 189 187 183 179 178 180 183 181 181 184 186 180 194 203 194 202 241 257 268 281 1 15 25 18 14 34 60 38 56 88 45 53 126 214 156 115 106 113 123 134 138
193 188 183 179 179 183 184 186 186 184 186 183 177 182 186 185 190 221 247 248 250 263 227 100 42 21 18 40 95 356 46 110 139 198 97 32 126 107 98 111 123 141 154
189 184 179 182 187 189 189 191 189 188 184 176 172 177 183 188 204 226 240 237 233 258 234 103 71 27 31 58 111 153 128 116 174 187 158 172 128 121 119 124 132 139 132
189 187 190 194 194 193 191 191 193 188 179 174 174 181 192 197 205 215 219 221 201 177 171 168 212 267 155 83 98 105 87 85 113 174 159 173 162 172 160 154 159 137 113
199 197 198 199 197 194 194 193 193 189 180 175 182 194 198 196 196 200 205 209 194 181 180 177 305 326 320 164 129 134 125 108 79 57 59 119 173 180 170 158 163 145 129
212 207 203 199 198 197 194 192 193 190 180 182 192 193 188 189 192 195 197 197 207 201 174 198 225 296 298 60 126 130 123 122 112 81 26 3 17 196 182 166 158 157 155
213 206 204 204 204 202 194 193 194 184 182 189 192 189 186 189 197 195 189 201 213 202 195 218 216 252 283 293 114 131 126 115 120 115 58 6 7 31 113 123 118 160 172
216 214 211 209 207 200 194 192 182 178 185 191 194 192 188 192 194 190 197 208 204 200 206 214 211 221 271 248 125 123 111 99 90 116 155 159 327 317 156 142 115 181 255
218 213 209 205 198 194 189 178 181 183 187 194 196 195 190 189 189 195 203 202 193 201 203 201 197 200 266 273 141 118 107 96 29 336 333 119 5 355 120 126 136 65 316
253 232 206 182 190 198 178 174 186 187 198 202 200 195 189 189 193 199 199 192 186 196 193 193 195 194 229 257 159 135 124 118 88 359 352 11 40 24 92 131 142 155 287
289 285 187 191 205 192 173 183 190 201 206 200 193 190 192 193 194 192 187 180 178 176 179 184 201 202 223 247 187 152 144 160 158 155 318 322 13 47 80 117 144 182 176
318 308 231 233 218 183 177 191 206 210 195 185 188 193 195 195 187 176 179 174 169 169 179 175 192 250 258 243 203 167 158 157 152 180 223 254 72 74 70 79 76 85 89
316 300 249 246 243 203 188 201 215 198 180 180 190 194 192 191 180 176 178 173 171 173 184 181 193 226 252 260 206 174 165 159 154 169 147 108 83 69 57 57 65 73 79
317 311 291 259 253 235 216 214 207 187 181 188 193 187 183 185 183 180 179 177 181 183 185 188 196 210 223 233 232 198 174 160 149 134 98 83 73 70 61 52 48 59 80
306 303 274 257 253 241 231 220 190 176 186 193 193 188 184 178 178 181 189 188 197 194 188 195 190 188 209 225 206 182 179 176 166 130 88 71 65 61 48 44 44 47 57
304 305 292 275 266 249 236 222 197 181 181 189 192 188 181 179 174 168 172 210 201 196 194 191 185 196 202 195 184 179 176 167 149 126 120 129 130 131 128 109 73 53 54